Location: Brno
(49.2000°N, 16.6330°E)
Time: 22:54:12
(UTC+02:00)

ISS - Visible Passes

Search period start: 16 April 2026 00:00
Search period end: 26 April 2026 00:00
Orbit: 415 x 424 km, 51.6° (Epoch: 16 April)

Date Brightness Start Highest point End Pass type
(mag) Time Alt. Az. Time Alt. Az. Time Alt. Az.
19 Apr -1.1 04:40:37 10° SSE 04:42:02 12° SE 04:43:28 10° ESE visible
21 Apr -2.2 04:41:05 12° SSW 04:43:37 27° SE 04:46:32 10° E visible
22 Apr -1.8 03:55:29 17° SSE 03:56:21 18° SE 03:58:46 10° E visible
23 Apr -1.1 03:09:49 12° ESE 03:09:49 12° ESE 03:10:33 10° ESE visible
23 Apr -3.4 04:42:46 15° SW 04:45:20 57° SSE 04:48:40 10° ENE visible
24 Apr -3.0 03:57:02 31° S 03:57:57 39° SSE 04:01:09 10° ENE visible
25 Apr -2.1 03:11:15 25° ESE 03:11:15 25° ESE 03:13:31 10° E visible
25 Apr -3.7 04:44:11 13° WSW 04:47:12 80° NNW 04:50:35 10° ENE visible
